Regional Weather Roundup
Issued by NWS Cleveland, OH

Home | Current Version | Previous Version | Text Only | Print | Product List | Glossary Off
Versions: 1 2 3 4 5 6 7 8 9 10 11 12 13 14 15 16 17 18 19 20 21 22 23 24 25 26 27 28 29 30 31 32 33 34 35 36 37 38 39 40 41 42 43 44 45 46 47 48 49 50

000
ASUS41 KCLE 272202
RWRCLE
OHIO REGIONAL WEATHER ROUNDUP
NATIONAL WEATHER SERVICE CLEVELAND, OH
600 PM EDT FRI MAY 27 2016

NOTE: "FAIR" INDICATES FEW OR NO CLOUDS BELOW 12,000 FEET WITH NO
SIGNIFICANT WEATHER AND/OR OBSTRUCTIONS TO VISIBILITY.

OHZ001>008-015>018-024>027-034-035-043-044-272300-
   NORTHWEST OHIO

CITY           SKY/WX    TMP DP  RH WIND       PRES   REMARKS
DEFIANCE       CLOUDY    86  60  41 SW6       29.93F
FINDLAY        MOSUNNY   88  58  36 SW10      29.94F
TOLEDO EXPRESS MOSUNNY   88  58  36 VRB6      29.94F
TOLEDO EXEC    MOSUNNY   87  60  40 VRB3      29.95F
LIMA           PTSUNNY   86  59  39 S12       29.95F
$$

OHZ009>014-019>023-028>033-038-089-272300-
   NORTHEAST OHIO

CITY           SKY/WX    TMP DP  RH WIND       PRES   REMARKS
CLE-HOPKINS    PTSUNNY   87  59  38 VRB6      30.00F
CLE-LAKEFRONT  SUNNY     74  64  71 NE12      29.98F
CUY CO. ARPT   PTSUNNY   86  66  51 NE5       30.00F
LORAIN-ELYRIA  MOSUNNY   84  62  47 SW7       29.98F
ASHTABULA      CLOUDY    81  63  54 N7        30.02S
AKRON-CANTON   PTSUNNY   84  63  49 SW12      30.02S
WOOSTER        SUNNY     86  60  41 SW13      30.01F
MANSFIELD      SUNNY     85  62  46 S7        30.01F
YOUNGSTOWN     CLOUDY    83  62  49 SW8       30.02S
$$

OHZ042-051>053-060>062-070>072-077>081-272300-
  SOUTHWEST OHIO

CITY           SKY/WX    TMP DP  RH WIND       PRES   REMARKS
CINC-COVINGTON PTSUNNY   84  64  50 SW10      29.98F
CINC-LUNKEN    MOSUNNY   83  66  56 SW12      29.97F
HAMILTON       MOSUNNY   86  63  45 S6        29.98F
DAYTON         PTSUNNY   84  62  47 S14       29.98F
WRIGHT-PAT AFB PTSUNNY   86  65  49 S12       29.97F
DAYTON GENERAL SUNNY     84  60  44 SW10      29.98F
WILMINGTON     MOSUNNY   85  65  51 SW13      29.99F
$$

OHZ036-037-039>041-045>050-054>059-063>069-073>076-082>088-272300-
  CENTRAL AND SOUTHEAST OHIO

CITY           SKY/WX    TMP DP  RH WIND       PRES   REMARKS
COLUMBUS       PTSUNNY   87  60  40 S12       29.98F
OSU AIRPORT    NOT AVBL
BOLTON FIELD   SUNNY     86  63  45 SW10      29.99F
RICKENBACK AFB NOT AVBL
NEWARK         MOSUNNY   89  62  40 S8        29.99F
MARION         PTSUNNY   87  59  38 SW15      29.98F
LANCASTER      MOSUNNY   85  64  49 SW7       30.00F
ZANESVILLE     SUNNY     88  63  43 SW6       30.01F
NEW PHILLY     MOSUNNY   88  61  40 SW6       30.01F
$$




USA.gov is the U.S. government's official web portal to all federal, state and local government web resources and services.